Theta_e
316 318 322 323 322 321 324 324 325 318 318 316 314 313 313 317 317 317 316 316 316 315 314 313 311 309 307 306 305 303 303 304 304 304 303 301 299 295 292 291 290 291 291 290
322 323 322 325 325 324 324 323 323 322 323 316 314 315 314 316 317 316 316 315 315 315 314 313 311 308 306 304 303 302 303 303 303 302 301 300 297 292 291 290 291 291 290 288
320 323 324 326 324 323 323 322 322 324 321 314 315 314 313 316 317 317 316 316 316 315 314 313 310 308 306 304 302 302 302 302 302 300 299 296 292 290 290 290 291 290 289 288
321 317 320 317 317 321 323 321 320 321 319 316 313 312 315 317 318 318 318 317 316 315 314 312 310 308 305 303 301 301 302 302 300 298 297 293 290 289 290 291 290 289 288 287
320 320 318 317 315 317 318 318 316 318 316 313 313 314 312 315 318 318 318 317 316 315 314 311 309 306 304 302 301 301 301 300 298 297 294 290 289 290 290 290 289 288 287 286
318 317 321 316 314 313 314 318 314 313 314 313 313 314 310 313 315 316 316 316 315 314 313 311 307 305 304 301 300 300 300 298 297 294 290 289 289 291 290 289 288 287 286 285
321 322 317 315 313 313 318 316 312 313 314 312 311 311 311 313 314 314 314 314 314 312 311 308 305 303 301 300 300 299 297 296 294 290 289 289 290 290 289 288 287 286 285 284
320 322 319 313 313 316 313 313 312 311 311 309 309 309 310 311 311 312 312 311 311 310 307 304 303 302 301 300 299 297 296 294 290 288 289 290 290 290 289 287 285 285 284 284
318 319 315 313 313 315 315 314 311 311 310 312 309 309 309 308 308 308 308 308 307 306 304 301 300 299 300 300 298 296 293 289 288 289 290 290 290 288 287 285 284 284 284 284
315 313 312 312 313 315 314 314 312 312 311 311 308 307 306 305 305 305 304 304 303 303 301 299 298 299 299 298 296 293 289 288 289 290 290 290 289 287 286 285 283 284 284 283
312 311 311 312 312 314 313 312 311 310 310 309 308 306 305 304 304 303 303 302 301 301 300 300 299 299 297 295 293 289 288 288 289 290 290 289 287 286 285 283 283 283 283 283
315 312 312 311 312 312 312 311 310 309 307 306 306 305 304 303 303 302 302 301 300 300 299 299 298 297 295 293 288 288 288 289 289 289 289 288 286 286 284 283 282 282 282 283
312 313 313 312 311 311 311 309 309 308 307 306 305 304 304 303 303 302 301 301 300 299 298 298 297 295 293 288 288 288 288 288 289 288 288 286 285 284 282 282 282 281 281 282
313 313 309 310 309 310 309 308 307 306 305 304 303 302 301 301 301 301 300 299 298 298 297 297 295 293 288 288 288 288 288 288 288 288 286 285 283 282 282 281 281 281 281 281
311 312 311 310 309 308 308 307 305 303 302 301 300 300 299 299 299 299 298 298 297 297 296 294 293 289 288 287 287 287 287 288 288 286 285 283 282 282 281 281 281 280 280 280
310 310 309 309 308 307 306 304 303 300 300 299 298 298 297 297 297 297 296 297 297 296 294 292 288 287 287 287 287 287 287 287 286 285 283 282 281 281 281 280 280 280 280 279
308 306 307 307 307 305 304 302 301 300 299 298 297 297 297 297 296 296 296 295 294 294 290 287 287 287 287 287 286 287 287 286 284 283 282 281 281 280 280 280 280 279 279 279
311 310 309 309 307 304 301 300 300 299 298 297 297 297 297 296 296 296 295 294 292 289 287 287 286 286 286 286 287 287 285 283 282 282 281 280 280 280 280 279 279 279 279 279
309 309 307 306 304 303 301 299 298 297 297 297 297 296 296 296 295 295 294 292 289 288 287 286 286 286 286 287 286 285 282 282 282 281 280 280 280 280 280 279 279 279 278 279
307 307 306 303 302 301 299 297 297 297 296 296 296 296 296 295 294 294 292 291 288 287 286 285 286 287 287 285 284 282 282 281 281 280 280 280 280 279 279 279 278 278 278 278
305 304 303 301 299 298 297 297 296 296 296 296 296 295 295 294 293 292 291 288 286 286 285 286 287 286 285 283 282 281 281 280 280 280 279 279 279 279 279 279 278 278 278 276
302 301 299 298 297 297 296 296 296 295 295 295 294 294 293 292 291 289 287 286 286 286 287 286 285 283 282 282 281 281 280 280 280 279 279 279 279 279 279 278 278 278 277 277
299 298 297 297 297 296 295 295 295 295 295 294 293 293 292 290 288 287 287 286 287 287 285 284 282 282 281 281 280 280 279 279 279 279 279 279 279 278 278 278 278 277 278 277
297 297 297 296 296 296 295 295 295 294 294 293 292 290 289 288 287 287 288 287 285 284 283 282 281 281 280 280 279 279 279 279 279 280 280 279 279 279 278 278 278 278 278 278
297 297 296 296 296 295 295 294 294 293 292 291 289 288 287 288 289 288 285 285 284 282 281 281 281 280 280 279 279 279 279 279 280 279 279 279 279 278 278 278 278 277 277 278
296 296 295 296 296 295 295 294 293 292 290 289 288 288 288 287 286 285 284 282 282 281 281 281 280 279 279 279 279 279 279 280 280 280 279 279 278 278 277 277 278 278 278 278
295 295 295 295 294 294 293 293 292 290 289 289 289 288 286 285 284 283 282 281 281 281 280 280 279 279 279 279 279 279 280 280 279 279 279 278 278 277 277 277 278 278 279 279
Wind_Speed
13 16 8 8 12 19 15 6 4 4 5 8 10 10 12 25 29 32 35 40 40 38 35 30 26 24 22 20 18 16 14 10 6 3 5 8 11 13 13 15 17 21 25 26
10 7 14 9 14 9 6 4 2 3 3 2 4 12 12 26 32 30 32 35 38 37 32 28 26 26 24 20 18 15 13 9 5 3 6 9 13 13 14 17 20 23 25 27
3 5 7 2 10 5 4 2 5 2 5 5 6 8 12 24 29 31 34 37 37 35 30 27 27 25 23 20 16 14 12 8 5 4 7 10 12 13 16 19 22 24 26 27
3 3 1 5 3 8 13 5 7 2 3 3 9 14 10 26 34 34 35 35 34 31 28 25 26 23 21 18 14 13 11 7 5 5 9 11 11 14 18 21 24 25 26 26
2 3 5 4 4 2 7 7 3 10 6 11 20 20 14 13 26 29 31 31 30 27 25 27 26 24 20 15 13 12 9 5 4 7 9 10 13 16 20 23 25 26 27 28
2 1 2 3 4 3 0 2 4 1 8 14 11 5 3 18 21 22 25 27 28 27 26 26 25 20 15 13 13 11 6 3 5 7 8 11 15 18 22 24 25 27 29 29
2 1 7 4 4 5 3 3 6 4 15 15 5 4 26 22 23 23 24 25 24 24 24 21 18 15 14 13 11 6 3 3 5 6 9 13 16 20 23 25 27 29 29 30
3 1 6 2 2 2 3 4 8 14 20 26 29 34 29 24 24 23 24 23 20 20 18 16 15 14 14 11 7 4 2 4 4 7 11 14 19 22 24 25 27 29 31 32
7 6 1 2 3 5 4 9 11 24 25 30 32 30 27 26 23 21 19 19 17 17 18 16 13 11 10 8 5 2 2 2 5 9 12 17 21 23 24 26 28 30 31 34
3 4 3 4 4 6 11 14 18 22 27 28 33 29 27 25 23 21 18 18 16 16 15 16 13 11 8 5 3 2 1 4 7 11 15 18 20 22 25 27 28 28 30 32
1 1 3 3 5 15 20 20 22 22 24 27 29 26 25 23 21 19 18 16 13 13 13 12 11 9 6 4 3 1 3 6 10 14 18 20 21 24 25 24 22 25 26 27
5 11 5 5 17 24 24 25 24 28 26 23 23 25 22 21 18 16 15 14 13 12 11 10 10 7 5 4 1 2 5 9 13 17 19 21 24 26 23 25 24 22 21 21
4 10 6 20 25 23 24 26 26 26 25 25 21 21 19 19 15 14 13 12 10 9 9 9 8 5 4 2 2 5 9 12 16 18 20 23 25 27 30 29 26 25 24 23
15 22 17 24 14 24 27 27 26 25 23 22 21 18 16 15 14 12 12 11 11 10 9 7 6 5 3 2 4 8 11 14 17 20 22 24 25 26 26 29 32 33 29 26
16 5 18 20 27 28 28 28 28 26 24 21 17 16 14 14 14 12 11 11 11 10 8 7 6 4 2 4 7 11 14 16 19 21 22 23 23 24 26 27 29 32 33 32
14 18 25 31 32 31 30 28 28 26 22 20 17 15 14 13 13 12 11 9 8 9 8 6 4 1 3 7 10 13 15 18 20 22 22 22 23 25 26 27 29 29 32 34
27 22 29 31 32 31 29 26 24 24 21 18 16 15 14 13 12 12 11 10 8 7 6 4 1 3 6 9 12 15 17 19 21 21 21 22 24 24 26 27 28 29 32 32
18 21 27 32 36 32 27 24 23 21 19 17 15 14 13 11 11 11 10 8 7 6 4 1 3 5 8 11 14 16 18 20 20 21 21 23 24 24 25 25 27 31 33 33
13 21 23 31 32 30 28 25 22 19 18 15 14 14 12 11 10 10 9 8 6 4 2 1 4 8 11 13 15 18 19 20 20 20 21 23 23 24 24 26 29 30 31 31
22 26 31 32 28 27 27 23 21 19 16 15 14 13 13 12 9 8 8 7 5 2 0 4 7 10 12 14 16 18 20 20 20 21 22 22 23 24 26 28 28 29 30 28
31 35 35 32 29 26 23 21 19 18 17 14 12 12 11 11 9 7 6 5 4 1 3 7 9 11 13 16 17 19 19 19 20 21 22 23 24 25 27 27 29 29 29 27
36 36 35 33 31 27 22 19 17 17 15 13 11 10 10 10 8 7 6 3 2 2 5 8 10 12 14 16 18 18 18 19 20 21 22 23 24 26 28 29 30 29 28 28
37 36 34 31 29 27 23 18 16 13 12 10 10 10 9 9 8 5 4 3 2 4 7 9 11 13 15 16 18 18 19 19 20 21 23 23 25 27 28 29 28 28 28 28
36 33 30 26 24 22 20 17 13 12 10 10 10 9 7 7 7 5 3 1 3 6 8 10 12 14 16 17 18 18 19 20 21 22 23 25 25 25 26 27 28 27 26 24
31 28 26 23 20 18 16 15 13 12 11 11 11 10 8 6 3 3 2 3 6 7 9 10 13 15 16 17 17 18 19 21 23 25 25 25 26 26 26 25 24 24 25 24
28 25 22 17 15 16 15 14 12 13 12 12 12 9 6 5 3 2 3 5 6 8 10 13 15 16 16 17 19 20 21 22 23 23 24 24 23 23 23 23 22 22 22 21
24 21 21 19 17 15 13 12 12 13 12 10 8 8 5 3 2 2 4 6 8 10 12 13 14 16 17 19 20 21 22 22 21 22 22 21 21 21 21 22 22 21 20 19
Wind_Direction
241 244 227 195 207 202 219 251 74 181 124 191 185 176 164 157 156 160 167 175 181 184 188 190 191 194 199 202 202 207 207 206 213 259 322 336 339 334 336 335 333 334 334 333
355 130 194 186 230 201 206 231 219 124 323 207 117 143 142 158 161 167 170 174 184 187 188 192 195 196 200 203 205 209 206 205 220 278 323 334 337 338 335 333 334 334 333 332
355 164 140 315 232 172 261 352 174 178 206 101 144 170 168 165 167 168 174 185 189 190 192 197 197 200 202 205 208 207 202 206 232 286 320 334 342 334 332 334 333 333 334 331
314 42 135 244 146 196 208 213 218 258 138 143 126 100 165 182 179 180 186 189 190 189 192 194 195 199 203 205 209 204 200 213 248 307 330 337 334 331 333 332 334 336 333 333
39 293 282 22 3 90 173 243 207 197 165 128 131 91 45 170 186 184 185 187 187 190 189 187 192 196 198 201 201 195 200 223 291 327 329 331 331 333 334 335 336 333 335 337
33 40 210 243 292 311 286 292 354 19 171 157 163 134 176 117 139 162 174 174 174 178 180 184 185 195 199 193 188 191 203 259 316 319 327 333 334 336 338 335 332 335 336 336
191 334 293 253 305 327 113 242 320 265 185 156 127 155 145 135 131 136 144 154 163 168 172 177 182 189 187 184 183 187 217 295 311 322 333 335 337 338 335 334 335 335 332 334
115 94 281 165 30 129 204 33 93 98 129 107 118 133 139 138 133 137 141 146 156 161 165 169 180 185 176 172 173 191 259 295 313 335 338 339 337 336 335 335 334 333 333 334
182 207 271 68 124 127 149 136 124 123 127 133 133 135 137 133 135 138 145 148 154 158 157 161 164 168 167 169 177 218 264 307 337 340 338 338 335 335 335 335 335 335 336 335
130 200 188 146 133 134 149 135 140 136 137 139 135 138 134 135 136 139 142 146 151 155 157 160 166 167 173 172 189 222 285 333 337 336 335 335 336 335 335 338 338 337 333 331
268 5 76 195 189 149 134 134 135 136 139 137 135 137 138 139 142 144 146 149 155 156 157 162 166 168 172 185 194 218 330 335 334 333 335 337 334 336 337 339 339 330 329 328
219 188 174 179 163 154 145 143 142 138 135 137 139 138 140 138 142 147 150 155 160 159 160 163 166 171 179 180 194 323 328 330 332 336 336 333 333 334 336 338 339 336 332 330
183 160 158 147 154 159 152 146 144 139 138 139 137 137 140 138 142 146 154 162 165 161 165 165 168 174 172 176 305 320 327 330 336 336 332 334 336 337 336 338 340 343 343 335
139 127 109 144 154 157 150 145 142 137 138 138 137 138 137 138 141 146 151 157 163 167 166 170 173 172 176 262 316 324 330 336 335 333 333 335 336 336 336 337 338 341 344 340
148 162 162 157 153 152 152 149 141 137 139 136 136 133 135 136 138 140 143 151 158 162 166 169 177 187 229 313 319 327 334 335 333 332 332 333 333 334 336 338 338 337 337 341
135 138 148 153 153 153 154 151 144 141 141 136 133 130 129 129 131 134 140 146 159 162 167 176 181 212 313 314 324 333 333 331 331 332 333 333 335 336 337 336 334 335 336 336
138 136 151 153 157 157 157 155 150 144 140 136 132 130 131 131 131 136 141 145 151 153 158 161 198 296 307 322 332 332 331 331 332 332 333 336 336 334 332 331 332 333 333 334
196 181 174 169 161 156 152 150 146 141 138 134 131 132 130 128 132 138 140 145 151 153 151 189 285 310 326 330 329 331 330 331 333 334 335 334 332 328 328 331 331 331 331 332
176 169 166 162 157 152 148 145 141 138 133 133 134 133 130 128 128 130 137 149 156 161 173 263 323 328 329 330 329 330 331 332 333 333 332 328 329 330 332 332 330 329 331 333
154 157 154 150 151 149 143 141 138 135 133 136 136 133 131 128 132 139 143 153 148 144 313 328 329 329 329 328 330 331 332 332 331 330 329 330 330 330 330 329 329 329 331 332
148 149 147 146 144 141 139 138 139 135 133 134 135 132 130 131 138 140 140 137 138 103 345 328 326 327 330 330 333 334 332 330 329 328 329 329 328 327 327 327 328 330 329 328
148 146 144 144 141 136 135 135 136 131 132 133 131 129 132 134 137 139 139 139 122 357 331 326 329 331 332 333 332 331 329 328 328 327 328 328 327 326 327 328 327 327 327 327
149 147 143 143 141 136 134 132 128 128 128 127 128 130 133 131 132 137 137 113 24 338 332 331 331 332 330 331 330 330 329 329 329 328 327 327 326 327 325 325 326 325 327 327
144 142 140 140 137 136 134 131 132 130 129 129 130 126 122 129 133 129 114 50 343 337 334 335 335 331 330 330 329 330 330 330 329 328 328 327 325 326 327 328 328 328 327 330
144 143 140 140 140 138 137 137 139 134 137 135 132 131 131 130 119 110 57 357 342 335 334 333 329 328 330 331 332 332 332 330 331 331 329 330 332 332 331 331 331 332 332 330
145 141 140 142 142 140 140 138 141 139 142 140 136 133 128 117 95 54 2 342 337 335 333 331 331 334 334 334 334 333 331 331 331 332 333 333 334 334 334 334 334 334 336 336
145 147 148 146 144 143 142 144 146 143 143 141 139 133 127 111 65 353 340 337 334 331 332 334 334 334 335 335 333 332 333 333 334 333 334 335 337 338 338 339 341 343 342 342